#datetime,building,power
2023-10-23T00:00:00,pth,1.20
2023-10-23T00:02:00,pth,2.40
2023-10-23T00:03:00,pth,1.20
2023-10-23T00:05:00,pth,3.60
2023-10-23T00:06:00,pth,2.40
2023-10-23T00:08:00,pth,3.60
2023-10-23T00:10:00,pth,2.40
2023-10-23T00:12:00,pth,2.40
2023-10-23T00:13:00,pth,1.20
2023-10-23T00:15:00,pth,4.80
2023-10-23T00:17:00,pth,4.80
2023-10-23T00:18:00,pth,2.40
2023-10-23T00:20:00,pth,4.80
2023-10-23T00:21:00,pth,1.20
2023-10-23T00:22:00,pth,2.40
2023-10-23T00:24:00,pth,2.40
2023-10-23T00:25:00,pth,1.20
2023-10-23T00:27:00,pth,2.40
2023-10-23T00:29:00,pth,3.60
2023-10-23T00:30:00,pth,1.20
2023-10-23T00:32:00,pth,2.40
2023-10-23T00:34:00,pth,3.60
2023-10-23T00:36:00,pth,2.40
2023-10-23T00:37:00,pth,1.20
2023-10-23T00:40:00,pth,2.40
2023-10-23T00:41:00,pth,2.40
2023-10-23T00:43:00,pth,3.60
2023-10-23T00:44:00,pth,1.19
2023-10-23T00:46:00,pth,2.40
2023-10-23T00:48:00,pth,4.80
2023-10-23T00:49:00,pth,1.20
2023-10-23T00:52:00,pth,8.40
2023-10-23T00:53:00,pth,1.20
2023-10-23T00:55:00,pth,3.60
2023-10-23T00:58:00,pth,3.60
2023-10-23T01:00:00,pth,2.40
2023-10-23T01:02:00,pth,2.40
2023-10-23T01:04:00,pth,1.20
2023-10-23T01:05:00,pth,2.40
2023-10-23T01:07:00,pth,2.40
2023-10-23T01:08:00,pth,1.19
2023-10-23T01:10:00,pth,2.40
2023-10-23T01:12:00,pth,3.60
2023-10-23T01:13:00,pth,1.19
2023-10-23T01:15:00,pth,2.40
2023-10-23T01:16:00,pth,1.20
2023-10-23T01:18:00,pth,3.60
2023-10-23T01:19:00,pth,1.20
2023-10-23T01:21:00,pth,4.80
2023-10-23T01:23:00,pth,4.80
2023-10-23T01:25:00,pth,4.80
2023-10-23T01:27:00,pth,2.40
2023-10-23T01:28:00,pth,2.40
2023-10-23T01:30:00,pth,2.40
2023-10-23T01:31:00,pth,1.20
2023-10-23T01:33:00,pth,2.40
2023-10-23T01:35:00,pth,2.40
2023-10-23T01:36:00,pth,1.19
2023-10-23T01:37:00,pth,1.20
2023-10-23T01:39:00,pth,3.60
2023-10-23T01:40:00,pth,1.20
2023-10-23T01:42:00,pth,2.40
2023-10-23T01:43:00,pth,1.20
2023-10-23T01:45:00,pth,2.40
2023-10-23T01:47:00,pth,2.40
2023-10-23T01:49:00,pth,2.40
2023-10-23T01:51:00,pth,3.60
2023-10-23T01:53:00,pth,4.80
2023-10-23T01:54:00,pth,2.40
2023-10-23T01:56:00,pth,4.80
2023-10-23T01:58:00,pth,2.40
2023-10-23T02:00:00,pth,2.40
2023-10-23T02:01:00,pth,1.19
2023-10-23T02:03:00,pth,2.40
2023-10-23T02:05:00,pth,2.40
2023-10-23T02:07:00,pth,2.40
2023-10-23T02:09:00,pth,1.20
2023-10-23T02:10:00,pth,2.40
2023-10-23T02:11:00,pth,1.20
2023-10-23T02:13:00,pth,1.20
2023-10-23T02:15:00,pth,1.19
2023-10-23T02:16:00,pth,2.40
2023-10-23T02:18:00,pth,2.40
2023-10-23T02:21:00,pth,2.40
2023-10-23T02:22:00,pth,2.40
2023-10-23T02:24:00,pth,3.60
2023-10-23T02:26:00,pth,4.80
2023-10-23T02:27:00,pth,2.40
2023-10-23T02:29:00,pth,3.60
2023-10-23T02:31:00,pth,2.40
2023-10-23T02:33:00,pth,1.20
2023-10-23T02:35:00,pth,2.40
2023-10-23T02:36:00,pth,1.20
2023-10-23T02:38:00,pth,3.60
2023-10-23T02:40:00,pth,1.20
2023-10-23T02:41:00,pth,1.19
2023-10-23T02:43:00,pth,2.40
2023-10-23T02:45:00,pth,2.40
2023-10-23T02:47:00,pth,3.60
2023-10-23T02:49:00,pth,2.40
2023-10-23T02:51:00,pth,2.40
2023-10-23T02:53:00,pth,3.60
2023-10-23T02:55:00,pth,3.60
2023-10-23T02:57:00,pth,6.00
2023-10-23T02:58:00,pth,2.40
2023-10-23T03:00:00,pth,4.80
2023-10-23T03:02:00,pth,2.40
2023-10-23T03:03:00,pth,1.20
2023-10-23T03:05:00,pth,3.60
2023-10-23T03:06:00,pth,3.60
2023-10-23T03:08:00,pth,3.60
2023-10-23T03:09:00,pth,1.20
2023-10-23T03:11:00,pth,2.40
2023-10-23T03:13:00,pth,2.40
2023-10-23T03:15:00,pth,2.40
2023-10-23T03:17:00,pth,2.40
2023-10-23T03:19:00,pth,1.19
2023-10-23T03:21:00,pth,2.40
2023-10-23T03:23:00,pth,2.40
2023-10-23T03:26:00,pth,1.20
2023-10-23T03:27:00,pth,4.80
2023-10-23T03:29:00,pth,3.60
2023-10-23T03:30:00,pth,2.40
2023-10-23T03:32:00,pth,3.60
2023-10-23T03:34:00,pth,1.20
2023-10-23T03:35:00,pth,1.19
2023-10-23T03:38:00,pth,2.40
2023-10-23T03:39:00,pth,1.20
2023-10-23T03:40:00,pth,1.20
2023-10-23T03:42:00,pth,2.40
2023-10-23T03:44:00,pth,1.20
2023-10-23T03:45:00,pth,1.20
2023-10-23T03:46:00,pth,1.20
2023-10-23T03:47:00,pth,1.20
2023-10-23T03:48:00,pth,1.20
2023-10-23T03:50:00,pth,1.20
2023-10-23T03:52:00,pth,2.40
2023-10-23T03:54:00,pth,2.40
2023-10-23T03:56:00,pth,1.20
2023-10-23T03:57:00,pth,3.60
2023-10-23T03:59:00,pth,3.60
2023-10-23T04:00:00,pth,2.40
2023-10-23T04:02:00,pth,2.40
2023-10-23T04:03:00,pth,3.60
2023-10-23T04:05:00,pth,2.40
2023-10-23T04:08:00,pth,1.20
2023-10-23T04:09:00,pth,2.40
2023-10-23T04:10:00,pth,1.20
2023-10-23T04:12:00,pth,1.20
2023-10-23T04:14:00,pth,2.40
2023-10-23T04:16:00,pth,2.40
2023-10-23T04:17:00,pth,1.20
2023-10-23T04:19:00,pth,3.60
2023-10-23T04:20:00,pth,1.20
2023-10-23T04:22:00,pth,2.40
2023-10-23T04:23:00,pth,1.20
2023-10-23T04:25:00,pth,2.40
2023-10-23T04:27:00,pth,3.60
2023-10-23T04:28:00,pth,1.20
2023-10-23T04:30:00,pth,4.80
2023-10-23T04:32:00,pth,4.80
2023-10-23T04:34:00,pth,2.40
2023-10-23T04:36:00,pth,2.40
2023-10-23T04:37:00,pth,1.20
2023-10-23T04:39:00,pth,3.60
2023-10-23T04:40:00,pth,1.20
2023-10-23T04:42:00,pth,2.40
2023-10-23T04:43:00,pth,1.19
2023-10-23T04:45:00,pth,1.20
2023-10-23T04:47:00,pth,2.40
2023-10-23T04:48:00,pth,1.20
2023-10-23T04:49:00,pth,1.20
2023-10-23T04:51:00,pth,1.19
2023-10-23T04:52:00,pth,1.20
2023-10-23T04:54:00,pth,2.40
2023-10-23T04:55:00,pth,1.20
2023-10-23T04:57:00,pth,2.40
2023-10-23T04:58:00,pth,1.19
2023-10-23T05:00:00,pth,4.80
2023-10-23T05:02:00,pth,3.60
2023-10-23T05:03:00,pth,1.20
2023-10-23T05:05:00,pth,2.40
2023-10-23T05:06:00,pth,1.20
2023-10-23T05:08:00,pth,2.40
2023-10-23T05:09:00,pth,1.20
2023-10-23T05:10:00,pth,1.20
2023-10-23T05:12:00,pth,1.20
2023-10-23T05:13:00,pth,1.20
2023-10-23T05:14:00,pth,1.19
2023-10-23T05:16:00,pth,2.40
2023-10-23T05:17:00,pth,1.20
2023-10-23T05:19:00,pth,1.20
2023-10-23T05:20:00,pth,1.20
2023-10-23T05:22:00,pth,2.40
2023-10-23T05:23:00,pth,1.20
2023-10-23T05:25:00,pth,1.20
2023-10-23T05:26:00,pth,1.20
2023-10-23T05:28:00,pth,3.60
2023-10-23T05:31:00,pth,6.01
2023-10-23T05:33:00,pth,3.60
2023-10-23T05:35:00,pth,2.40
2023-10-23T05:37:00,pth,2.40
2023-10-23T05:39:00,pth,2.40
2023-10-23T05:41:00,pth,1.20
2023-10-23T05:43:00,pth,2.40
2023-10-23T05:44:00,pth,1.20
2023-10-23T05:46:00,pth,2.40
2023-10-23T05:47:00,pth,1.20
2023-10-23T05:49:00,pth,1.20
2023-10-23T05:51:00,pth,2.40
2023-10-23T05:53:00,pth,2.40
2023-10-23T05:55:00,pth,1.20
2023-10-23T05:56:00,pth,1.20
2023-10-23T05:58:00,pth,3.60
2023-10-23T06:01:00,pth,3.60
2023-10-23T06:02:00,pth,3.60
2023-10-23T06:04:00,pth,3.60
2023-10-23T06:05:00,pth,1.20
2023-10-23T06:07:00,pth,2.40
2023-10-23T06:08:00,pth,1.19
2023-10-23T06:10:00,pth,2.40
2023-10-23T06:11:00,pth,1.20
2023-10-23T06:13:00,pth,2.40
2023-10-23T06:15:00,pth,2.40
2023-10-23T06:18:00,pth,2.40
2023-10-23T06:20:00,pth,2.40
2023-10-23T06:22:00,pth,2.40
2023-10-23T06:24:00,pth,2.40
2023-10-23T06:26:00,pth,2.40
2023-10-23T06:28:00,pth,2.40
2023-10-23T06:30:00,pth,3.60
2023-10-23T06:32:00,pth,3.60
2023-10-23T06:33:00,pth,2.40
2023-10-23T06:35:00,pth,3.60
2023-10-23T06:36:00,pth,1.19
2023-10-23T06:38:00,pth,2.40
2023-10-23T06:40:00,pth,2.40
2023-10-23T06:42:00,pth,2.40
2023-10-23T06:43:00,pth,1.20
2023-10-23T06:44:00,pth,1.20
2023-10-23T06:46:00,pth,2.40
2023-10-23T06:48:00,pth,3.60
2023-10-23T06:50:00,pth,2.40
2023-10-23T06:51:00,pth,1.20
2023-10-23T06:53:00,pth,2.40
2023-10-23T06:55:00,pth,2.40
2023-10-23T06:57:00,pth,3.60
2023-10-23T06:58:00,pth,1.20
2023-10-23T07:00:00,pth,6.00
2023-10-23T07:02:00,pth,4.80
2023-10-23T07:03:00,pth,2.40
2023-10-23T07:05:00,pth,4.80
2023-10-23T07:07:00,pth,3.60
2023-10-23T07:09:00,pth,4.80
2023-10-23T07:10:00,pth,1.20
2023-10-23T07:12:00,pth,3.60
2023-10-23T07:14:00,pth,3.60
2023-10-23T07:16:00,pth,3.60
2023-10-23T07:18:00,pth,2.40
2023-10-23T07:20:00,pth,2.40
2023-10-23T07:22:00,pth,2.40
2023-10-23T07:24:00,pth,2.40
2023-10-23T07:26:00,pth,2.40
2023-10-23T07:27:00,pth,2.40
2023-10-23T07:28:00,pth,2.40
2023-10-23T07:30:00,pth,2.40
2023-10-23T07:31:00,pth,4.80
2023-10-23T07:33:00,pth,4.80
2023-10-23T07:34:00,pth,1.19
2023-10-23T07:36:00,pth,3.60
2023-10-23T07:37:00,pth,1.20
2023-10-23T07:39:00,pth,3.60
2023-10-23T07:42:00,pth,2.40
2023-10-23T07:43:00,pth,3.60
2023-10-23T07:44:00,pth,2.40
2023-10-23T07:45:00,pth,1.20
2023-10-23T07:48:00,pth,4.80
2023-10-23T07:50:00,pth,3.60
2023-10-23T07:52:00,pth,2.40
2023-10-23T07:54:00,pth,2.40
2023-10-23T07:55:00,pth,3.60
2023-10-23T07:57:00,pth,4.80
2023-10-23T07:58:00,pth,3.60
2023-10-23T08:00:00,pth,4.80
2023-10-23T08:01:00,pth,2.40
2023-10-23T08:03:00,pth,4.80
2023-10-23T08:04:00,pth,1.20
2023-10-23T08:06:00,pth,2.40
2023-10-23T08:08:00,pth,2.40
2023-10-23T08:09:00,pth,1.20
2023-10-23T08:11:00,pth,2.40
2023-10-23T08:13:00,pth,2.40
2023-10-23T08:15:00,pth,2.40
2023-10-23T08:16:00,pth,1.20
2023-10-23T08:18:00,pth,2.40
2023-10-23T08:19:00,pth,1.20
2023-10-23T08:21:00,pth,2.40
2023-10-23T08:22:00,pth,1.20
2023-10-23T08:23:00,pth,1.20
2023-10-23T08:25:00,pth,3.60
2023-10-23T08:26:00,pth,1.20
2023-10-23T08:29:00,pth,4.80
2023-10-23T08:31:00,pth,4.80
2023-10-23T08:33:00,pth,3.60
2023-10-23T08:35:00,pth,2.40
2023-10-23T08:37:00,pth,2.40
2023-10-23T08:38:00,pth,1.20
2023-10-23T08:41:00,pth,2.40
2023-10-23T08:43:00,pth,2.40
2023-10-23T08:44:00,pth,1.20
2023-10-23T08:46:00,pth,1.20
2023-10-23T08:47:00,pth,1.20
2023-10-23T08:49:00,pth,1.19
2023-10-23T08:50:00,pth,1.20
2023-10-23T08:52:00,pth,2.40
2023-10-23T08:54:00,pth,2.40
2023-10-23T08:56:00,pth,2.40
2023-10-23T08:58:00,pth,4.80
2023-10-23T09:00:00,pth,3.60
2023-10-23T09:01:00,pth,2.40
2023-10-23T09:03:00,pth,6.00
2023-10-23T09:05:00,pth,2.40
2023-10-23T09:07:00,pth,1.20
2023-10-23T09:09:00,pth,2.40
2023-10-23T09:11:00,pth,2.40
2023-10-23T09:13:00,pth,2.40
2023-10-23T09:16:00,pth,2.40
2023-10-23T09:18:00,pth,2.40
2023-10-23T09:20:00,pth,2.40
2023-10-23T09:23:00,pth,3.60
2023-10-23T09:24:00,pth,1.20
2023-10-23T09:26:00,pth,2.40
2023-10-23T09:28:00,pth,1.20
2023-10-23T09:30:00,pth,4.80
2023-10-23T09:31:00,pth,1.20
2023-10-23T09:34:00,pth,4.80
2023-10-23T09:35:00,pth,4.80
2023-10-23T09:36:00,pth,1.20
2023-10-23T09:38:00,pth,1.20
2023-10-23T09:40:00,pth,1.20
2023-10-23T09:41:00,pth,1.20
2023-10-23T09:42:00,pth,1.20
2023-10-23T09:44:00,pth,2.40
2023-10-23T09:46:00,pth,1.20
2023-10-23T09:47:00,pth,1.20
2023-10-23T09:49:00,pth,2.40
2023-10-23T09:52:00,pth,2.40
2023-10-23T09:53:00,pth,2.40
2023-10-23T09:54:00,pth,1.20
2023-10-23T09:56:00,pth,1.20
2023-10-23T09:58:00,pth,2.40
2023-10-23T10:01:00,pth,2.40
2023-10-23T10:03:00,pth,3.60
2023-10-23T10:04:00,pth,2.40
2023-10-23T10:06:00,pth,3.60
2023-10-23T10:07:00,pth,2.40
2023-10-23T10:08:00,pth,1.20
2023-10-23T10:10:00,pth,2.40
2023-10-23T10:12:00,pth,2.40
2023-10-23T10:14:00,pth,1.20
2023-10-23T10:15:00,pth,1.19
2023-10-23T10:17:00,pth,1.20
2023-10-23T10:18:00,pth,1.20
2023-10-23T10:21:00,pth,1.20
2023-10-23T10:23:00,pth,2.40
2023-10-23T10:27:00,pth,2.40
2023-10-23T10:29:00,pth,2.40
2023-10-23T10:31:00,pth,1.20
2023-10-23T10:33:00,pth,1.20
2023-10-23T10:34:00,pth,2.40
2023-10-23T10:36:00,pth,3.60
2023-10-23T10:37:00,pth,2.40
2023-10-23T10:39:00,pth,3.60
2023-10-23T10:40:00,pth,2.40
2023-10-23T10:42:00,pth,2.40
2023-10-23T10:45:00,pth,2.40
2023-10-23T10:47:00,pth,3.60
2023-10-23T10:48:00,pth,1.19
2023-10-23T10:50:00,pth,2.40
2023-10-23T10:52:00,pth,1.20
2023-10-23T10:54:00,pth,2.40
2023-10-23T10:55:00,pth,1.19
2023-10-23T10:57:00,pth,3.60
2023-10-23T10:58:00,pth,1.20
2023-10-23T11:00:00,pth,2.40
2023-10-23T11:02:00,pth,3.60
2023-10-23T11:05:00,pth,2.40
2023-10-23T11:07:00,pth,2.40
2023-10-23T11:08:00,pth,2.40
2023-10-23T11:10:00,pth,3.60
2023-10-23T11:12:00,pth,4.80
2023-10-23T11:14:00,pth,4.80
2023-10-23T11:16:00,pth,2.40
2023-10-23T11:18:00,pth,3.60
2023-10-23T11:19:00,pth,2.40
2023-10-23T11:21:00,pth,2.40
2023-10-23T11:23:00,pth,2.40
2023-10-23T11:25:00,pth,2.40
2023-10-23T11:27:00,pth,2.40
2023-10-23T11:28:00,pth,1.20
2023-10-23T11:30:00,pth,2.40
2023-10-23T11:32:00,pth,2.40
2023-10-23T11:33:00,pth,1.20
2023-10-23T11:35:00,pth,2.40
2023-10-23T11:37:00,pth,2.40
2023-10-23T11:39:00,pth,1.20
2023-10-23T11:41:00,pth,2.40
2023-10-23T11:43:00,pth,3.60
2023-10-23T11:45:00,pth,3.60
2023-10-23T11:46:00,pth,1.20
2023-10-23T11:48:00,pth,3.60
2023-10-23T11:50:00,pth,1.20
2023-10-23T11:51:00,pth,2.40
2023-10-23T11:53:00,pth,2.40
2023-10-23T11:54:00,pth,1.20
2023-10-23T11:56:00,pth,1.20
2023-10-23T11:57:00,pth,1.20
2023-10-23T11:58:00,pth,1.20
2023-10-23T12:00:00,pth,2.40
2023-10-23T12:02:00,pth,2.40
2023-10-23T12:05:00,pth,2.40
2023-10-23T12:08:00,pth,2.40
2023-10-23T12:10:00,pth,2.40
2023-10-23T12:11:00,pth,1.20
2023-10-23T12:12:00,pth,1.20
2023-10-23T12:14:00,pth,2.40
2023-10-23T12:16:00,pth,1.19
2023-10-23T12:18:00,pth,2.40
2023-10-23T12:20:00,pth,2.40
2023-10-23T12:21:00,pth,3.60
2023-10-23T12:22:00,pth,1.20
2023-10-23T12:23:00,pth,2.40
2023-10-23T12:25:00,pth,2.40
2023-10-23T12:27:00,pth,2.40
2023-10-23T12:30:00,pth,3.60
2023-10-23T12:32:00,pth,1.19
2023-10-23T12:33:00,pth,1.20
2023-10-23T12:35:00,pth,1.20
2023-10-23T12:37:00,pth,2.40
2023-10-23T12:39:00,pth,1.20
2023-10-23T12:41:00,pth,2.40
2023-10-23T12:43:00,pth,1.20
2023-10-23T12:44:00,pth,1.20
2023-10-23T12:45:00,pth,1.20
2023-10-23T12:47:00,pth,2.40
2023-10-23T12:48:00,pth,1.19
2023-10-23T12:50:00,pth,1.20
2023-10-23T12:52:00,pth,2.40
2023-10-23T12:55:00,pth,2.40
2023-10-23T12:56:00,pth,6.00
2023-10-23T12:57:00,pth,2.40
2023-10-23T12:59:00,pth,4.80
2023-10-23T13:01:00,pth,3.60
2023-10-23T13:02:00,pth,1.20
2023-10-23T13:04:00,pth,2.40
2023-10-23T13:05:00,pth,1.20
2023-10-23T13:07:00,pth,1.20
2023-10-23T13:08:00,pth,1.19
2023-10-23T13:10:00,pth,2.40
2023-10-23T13:11:00,pth,1.20
2023-10-23T13:13:00,pth,2.40
2023-10-23T13:14:00,pth,1.19
2023-10-23T13:15:00,pth,1.20
2023-10-23T13:17:00,pth,2.40
2023-10-23T13:19:00,pth,3.60
2023-10-23T13:21:00,pth,1.20
2023-10-23T13:23:00,pth,2.40
2023-10-23T13:25:00,pth,1.20
2023-10-23T13:26:00,pth,2.40
2023-10-23T13:28:00,pth,1.19
2023-10-23T13:29:00,pth,1.20
2023-10-23T13:31:00,pth,2.40
2023-10-23T13:32:00,pth,2.40
2023-10-23T13:34:00,pth,4.80
2023-10-23T13:37:00,pth,6.00
2023-10-23T13:38:00,pth,3.60
2023-10-23T13:40:00,pth,2.40
2023-10-23T13:41:00,pth,1.20
2023-10-23T13:44:00,pth,2.40
2023-10-23T13:46:00,pth,1.20
2023-10-23T13:49:00,pth,2.40
2023-10-23T13:50:00,pth,1.20
2023-10-23T13:52:00,pth,1.20
2023-10-23T13:53:00,pth,1.20
2023-10-23T13:55:00,pth,1.20
2023-10-23T13:56:00,pth,1.20
2023-10-23T13:57:00,pth,1.19
2023-10-23T13:59:00,pth,1.20
2023-10-23T14:01:00,pth,1.20
2023-10-23T14:02:00,pth,1.20
2023-10-23T14:03:00,pth,1.20
2023-10-23T14:04:00,pth,1.20
2023-10-23T14:07:00,pth,3.60
2023-10-23T14:09:00,pth,2.40
2023-10-23T14:10:00,pth,1.20
2023-10-23T14:13:00,pth,6.00
2023-10-23T14:14:00,pth,2.40
2023-10-23T14:16:00,pth,4.80
2023-10-23T14:19:00,pth,3.60
2023-10-23T14:20:00,pth,2.40
2023-10-23T14:21:00,pth,1.20
2023-10-23T14:23:00,pth,2.40
2023-10-23T14:25:00,pth,2.40
2023-10-23T14:27:00,pth,2.40
2023-10-23T14:28:00,pth,1.20
2023-10-23T14:30:00,pth,2.40
2023-10-23T14:31:00,pth,1.20
2023-10-23T14:33:00,pth,1.20
2023-10-23T14:34:00,pth,1.20
2023-10-23T14:36:00,pth,1.20
2023-10-23T14:39:00,pth,1.20
2023-10-23T14:41:00,pth,2.40
2023-10-23T14:43:00,pth,1.20
2023-10-23T14:46:00,pth,2.40
2023-10-23T14:47:00,pth,1.20
2023-10-23T14:50:00,pth,2.40
2023-10-23T14:51:00,pth,1.20
2023-10-23T14:53:00,pth,3.60
2023-10-23T14:54:00,pth,2.40
2023-10-23T14:56:00,pth,3.60
2023-10-23T14:57:00,pth,1.20
2023-10-23T14:59:00,pth,1.20
2023-10-23T15:01:00,pth,1.19
2023-10-23T15:02:00,pth,1.20
2023-10-23T15:04:00,pth,1.20
2023-10-23T15:06:00,pth,1.20
2023-10-23T15:08:00,pth,2.40
2023-10-23T15:10:00,pth,1.20
2023-10-23T15:13:00,pth,2.40
2023-10-23T15:16:00,pth,1.20
2023-10-23T15:18:00,pth,2.40
2023-10-23T15:21:00,pth,1.20
2023-10-23T15:23:00,pth,2.40
2023-10-23T15:26:00,pth,1.20
2023-10-23T15:27:00,pth,1.20
2023-10-23T15:28:00,pth,1.20
2023-10-23T15:30:00,pth,1.20
2023-10-23T15:32:00,pth,2.40
2023-10-23T15:34:00,pth,3.60
2023-10-23T15:36:00,pth,3.60
2023-10-23T15:38:00,pth,3.60
2023-10-23T15:40:00,pth,2.40
2023-10-23T15:42:00,pth,1.19
2023-10-23T15:44:00,pth,1.20
2023-10-23T15:45:00,pth,1.20
2023-10-23T15:48:00,pth,1.20
2023-10-23T15:50:00,pth,2.40
2023-10-23T15:52:00,pth,1.19
2023-10-23T15:54:00,pth,1.20
2023-10-23T15:55:00,pth,1.20
2023-10-23T15:57:00,pth,2.40
2023-10-23T16:00:00,pth,2.40
2023-10-23T16:03:00,pth,2.40
2023-10-23T16:05:00,pth,1.20
2023-10-23T16:06:00,pth,1.20
2023-10-23T16:08:00,pth,2.40
2023-10-23T16:09:00,pth,1.20
2023-10-23T16:11:00,pth,3.60
2023-10-23T16:13:00,pth,4.80
2023-10-23T16:15:00,pth,4.80
2023-10-23T16:17:00,pth,4.80
2023-10-23T16:19:00,pth,2.40
2023-10-23T16:20:00,pth,1.19
2023-10-23T16:22:00,pth,2.40
2023-10-23T16:23:00,pth,1.20
2023-10-23T16:24:00,pth,1.20
2023-10-23T16:26:00,pth,1.20
2023-10-23T16:27:00,pth,1.19
2023-10-23T16:29:00,pth,2.40
2023-10-23T16:31:00,pth,2.40
2023-10-23T16:32:00,pth,1.20
2023-10-23T16:33:00,pth,1.20
2023-10-23T16:34:00,pth,1.19
2023-10-23T16:36:00,pth,4.80
2023-10-23T16:38:00,pth,3.60
2023-10-23T16:39:00,pth,1.20
2023-10-23T16:41:00,pth,2.40
2023-10-23T16:42:00,pth,1.20
2023-10-23T16:44:00,pth,4.80
2023-10-23T16:45:00,pth,2.40
2023-10-23T16:46:00,pth,1.19
2023-10-23T16:48:00,pth,3.60
2023-10-23T16:50:00,pth,1.20
2023-10-23T16:51:00,pth,1.20
2023-10-23T16:52:00,pth,2.40
2023-10-23T16:54:00,pth,4.80
2023-10-23T16:56:00,pth,4.80
2023-10-23T16:58:00,pth,3.60
2023-10-23T17:00:00,pth,3.60
2023-10-23T17:02:00,pth,2.40
2023-10-23T17:03:00,pth,1.20
2023-10-23T17:05:00,pth,2.40
2023-10-23T17:06:00,pth,1.20
2023-10-23T17:08:00,pth,2.40
2023-10-23T17:11:00,pth,2.40
2023-10-23T17:13:00,pth,2.40
2023-10-23T17:14:00,pth,1.20
2023-10-23T17:15:00,pth,1.20
2023-10-23T17:17:00,pth,1.20
2023-10-23T17:19:00,pth,2.40
2023-10-23T17:23:00,pth,2.40
2023-10-23T17:24:00,pth,1.20
2023-10-23T17:25:00,pth,1.20
2023-10-23T17:27:00,pth,1.20
2023-10-23T17:29:00,pth,2.40
2023-10-23T17:31:00,pth,2.40
2023-10-23T17:33:00,pth,2.40
2023-10-23T17:35:00,pth,1.19
2023-10-23T17:36:00,pth,3.60
2023-10-23T17:37:00,pth,1.20
2023-10-23T17:38:00,pth,2.40
2023-10-23T17:41:00,pth,3.60
2023-10-23T17:42:00,pth,3.60
2023-10-23T17:44:00,pth,2.40
2023-10-23T17:47:00,pth,2.40
2023-10-23T17:48:00,pth,2.40
2023-10-23T17:50:00,pth,1.19
2023-10-23T17:53:00,pth,4.80
2023-10-23T17:55:00,pth,2.40
2023-10-23T17:57:00,pth,2.40
2023-10-23T17:59:00,pth,1.20
2023-10-23T18:00:00,pth,2.40
2023-10-23T18:02:00,pth,2.40
2023-10-23T18:03:00,pth,1.20
2023-10-23T18:05:00,pth,3.60
2023-10-23T18:07:00,pth,3.60
2023-10-23T18:09:00,pth,2.40
2023-10-23T18:11:00,pth,1.20
2023-10-23T18:12:00,pth,2.40
2023-10-23T18:14:00,pth,3.60
2023-10-23T18:15:00,pth,2.40
2023-10-23T18:17:00,pth,4.80
2023-10-23T18:19:00,pth,4.80
2023-10-23T18:21:00,pth,3.60
2023-10-23T18:23:00,pth,1.20
2023-10-23T18:24:00,pth,2.40
2023-10-23T18:26:00,pth,3.60
2023-10-23T18:27:00,pth,1.20
2023-10-23T18:29:00,pth,3.60
2023-10-23T18:31:00,pth,2.40
2023-10-23T18:32:00,pth,2.40
2023-10-23T18:35:00,pth,3.60
2023-10-23T18:36:00,pth,3.60
2023-10-23T18:37:00,pth,1.20
2023-10-23T18:39:00,pth,4.80
2023-10-23T18:41:00,pth,4.80
2023-10-23T18:43:00,pth,2.40
2023-10-23T18:44:00,pth,2.40
2023-10-23T18:45:00,pth,1.19
2023-10-23T18:47:00,pth,1.20
2023-10-23T18:48:00,pth,2.40
2023-10-23T18:49:00,pth,1.20
2023-10-23T18:51:00,pth,2.40
2023-10-23T18:53:00,pth,1.20
2023-10-23T18:54:00,pth,4.80
2023-10-23T18:56:00,pth,4.80
2023-10-23T18:58:00,pth,4.80
2023-10-23T19:00:00,pth,3.60
2023-10-23T19:02:00,pth,3.60
2023-10-23T19:03:00,pth,1.20
2023-10-23T19:05:00,pth,2.40
2023-10-23T19:07:00,pth,3.60
2023-10-23T19:09:00,pth,2.40
2023-10-23T19:11:00,pth,3.60
2023-10-23T19:12:00,pth,1.20
2023-10-23T19:14:00,pth,3.60
2023-10-23T19:16:00,pth,4.80
2023-10-23T19:18:00,pth,3.60
2023-10-23T19:20:00,pth,3.60
2023-10-23T19:22:00,pth,3.60
2023-10-23T19:23:00,pth,2.40
2023-10-23T19:25:00,pth,3.60
2023-10-23T19:27:00,pth,2.40
2023-10-23T19:28:00,pth,1.20
2023-10-23T19:30:00,pth,3.60
2023-10-23T19:32:00,pth,3.60
2023-10-23T19:34:00,pth,4.80
2023-10-23T19:35:00,pth,2.40
2023-10-23T19:36:00,pth,3.60
2023-10-23T19:38:00,pth,3.60
2023-10-23T19:40:00,pth,2.40
2023-10-23T19:42:00,pth,2.40
2023-10-23T19:43:00,pth,3.60
2023-10-23T19:46:00,pth,21.60
2023-10-23T19:48:00,pth,14.40
2023-10-23T19:50:00,pth,14.40
2023-10-23T19:52:00,pth,15.60
2023-10-23T19:53:00,pth,7.20
2023-10-23T19:54:00,pth,8.40
2023-10-23T19:56:00,pth,14.40
2023-10-23T19:58:00,pth,15.60
2023-10-23T20:00:00,pth,14.40
2023-10-23T20:02:00,pth,14.40
2023-10-23T20:04:00,pth,15.60
2023-10-23T20:06:00,pth,14.40
2023-10-23T20:07:00,pth,8.40
2023-10-23T20:08:00,pth,8.40
2023-10-23T20:10:00,pth,14.40
2023-10-23T20:12:00,pth,15.60
2023-10-23T20:13:00,pth,8.40
2023-10-23T20:14:00,pth,7.20
2023-10-23T20:16:00,pth,14.40
2023-10-23T20:18:00,pth,15.60
2023-10-23T20:20:00,pth,15.60
2023-10-23T20:22:00,pth,15.59
2023-10-23T20:23:00,pth,8.40
2023-10-23T20:25:00,pth,12.00
2023-10-23T20:28:00,pth,15.60
2023-10-23T20:30:00,pth,15.60
2023-10-23T20:32:00,pth,3.60
2023-10-23T20:34:00,pth,8.40
2023-10-23T20:35:00,pth,15.60
2023-10-23T20:37:00,pth,7.20
2023-10-23T20:38:00,pth,3.60
2023-10-23T20:40:00,pth,16.80
2023-10-23T20:41:00,pth,16.80
2023-10-23T20:42:00,pth,10.80
2023-10-23T20:43:00,pth,1.20
2023-10-23T20:45:00,pth,4.80
2023-10-23T20:47:00,pth,3.60
2023-10-23T20:48:00,pth,2.40
2023-10-23T20:50:00,pth,3.60
2023-10-23T20:52:00,pth,2.40
2023-10-23T20:53:00,pth,1.20
2023-10-23T20:55:00,pth,2.40
2023-10-23T20:56:00,pth,1.20
2023-10-23T20:58:00,pth,2.40
2023-10-23T21:00:00,pth,2.40
2023-10-23T21:03:00,pth,4.80
2023-10-23T21:05:00,pth,2.40
2023-10-23T21:07:00,pth,3.60
2023-10-23T21:09:00,pth,2.40
2023-10-23T21:11:00,pth,6.01
2023-10-23T21:13:00,pth,3.60
2023-10-23T21:15:00,pth,3.60
2023-10-23T21:16:00,pth,2.40
2023-10-23T21:18:00,pth,3.60
2023-10-23T21:21:00,pth,2.40
2023-10-23T21:22:00,pth,2.40
2023-10-23T21:24:00,pth,2.40
2023-10-23T21:27:00,pth,4.80
2023-10-23T21:29:00,pth,2.40
2023-10-23T21:31:00,pth,2.40
2023-10-23T21:33:00,pth,2.40
2023-10-23T21:34:00,pth,1.20
2023-10-23T21:36:00,pth,2.40
2023-10-23T21:39:00,pth,2.40
2023-10-23T21:40:00,pth,3.60
2023-10-23T21:41:00,pth,7.20
2023-10-23T21:43:00,pth,14.40
2023-10-23T21:45:00,pth,16.80
2023-10-23T21:46:00,pth,7.20
2023-10-23T21:47:00,pth,8.40
2023-10-23T21:49:00,pth,15.60
2023-10-23T21:51:00,pth,8.40
2023-10-23T21:52:00,pth,15.59
2023-10-23T21:54:00,pth,15.60
2023-10-23T21:57:00,pth,15.60
2023-10-23T21:58:00,pth,15.60
2023-10-23T21:59:00,pth,8.40
2023-10-23T22:00:00,pth,7.20
2023-10-23T22:03:00,pth,24.00
2023-10-23T22:05:00,pth,14.40
2023-10-23T22:06:00,pth,7.20
2023-10-23T22:09:00,pth,16.80
2023-10-23T22:10:00,pth,14.40
2023-10-23T22:12:00,pth,15.60
2023-10-23T22:13:00,pth,8.40
2023-10-23T22:15:00,pth,14.40
2023-10-23T22:16:00,pth,7.20
2023-10-23T22:18:00,pth,15.60
2023-10-23T22:20:00,pth,15.60
2023-10-23T22:21:00,pth,7.20
2023-10-23T22:23:00,pth,8.40
2023-10-23T22:25:00,pth,14.40
2023-10-23T22:26:00,pth,8.40
2023-10-23T22:28:00,pth,15.59
2023-10-23T22:29:00,pth,8.40
2023-10-23T22:31:00,pth,8.40
2023-10-23T22:32:00,pth,6.00
2023-10-23T22:34:00,pth,15.60
2023-10-23T22:36:00,pth,14.40
2023-10-23T22:38:00,pth,6.01
2023-10-23T22:40:00,pth,4.80
2023-10-23T22:42:00,pth,4.80
2023-10-23T22:44:00,pth,3.60
2023-10-23T22:46:00,pth,3.60
2023-10-23T22:48:00,pth,2.40
2023-10-23T22:50:00,pth,1.20
2023-10-23T22:51:00,pth,3.60
2023-10-23T22:53:00,pth,2.40
2023-10-23T22:56:00,pth,3.60
2023-10-23T22:57:00,pth,2.40
2023-10-23T22:59:00,pth,3.60
2023-10-23T23:02:00,pth,4.80
2023-10-23T23:04:00,pth,3.60
2023-10-23T23:06:00,pth,2.40
2023-10-23T23:08:00,pth,3.60
2023-10-23T23:09:00,pth,1.20
2023-10-23T23:11:00,pth,2.40
2023-10-23T23:12:00,pth,1.20
2023-10-23T23:14:00,pth,2.40
2023-10-23T23:16:00,pth,3.60
2023-10-23T23:17:00,pth,1.20
2023-10-23T23:20:00,pth,2.40
2023-10-23T23:21:00,pth,2.40
2023-10-23T23:22:00,pth,2.40
2023-10-23T23:24:00,pth,3.60
2023-10-23T23:26:00,pth,1.20
2023-10-23T23:27:00,pth,3.60
2023-10-23T23:28:00,pth,1.20
2023-10-23T23:30:00,pth,3.60
2023-10-23T23:32:00,pth,2.40
2023-10-23T23:34:00,pth,3.60
2023-10-23T23:35:00,pth,1.20
2023-10-23T23:38:00,pth,2.40
2023-10-23T23:39:00,pth,3.60
2023-10-23T23:40:00,pth,1.20
2023-10-23T23:42:00,pth,2.40
2023-10-23T23:44:00,pth,3.60
2023-10-23T23:46:00,pth,2.40
2023-10-23T23:47:00,pth,1.19
2023-10-23T23:50:00,pth,3.60
2023-10-23T23:51:00,pth,3.60
2023-10-23T23:53:00,pth,4.80